Location: Eurasberg
(48.3353°N, 11.0839°E)
Time: 20:09:28
(UTC+00:00)

YAOGAN 1 - Pass Details

Date: 18 January 2026
Orbit: 605 x 607 km, 97.8° (Epoch: 13 February)

Event Time Altitude Azimuth Distance (km) Brightness Sun altitude
Rises 06:10:02 0° 19° (NNE) 2,874 6.0 -8.2°
Reaches altitude 10° 06:12:20 10° 27° (NNE) 1,965 5.2 -7.9°
Maximum altitude 06:16:22 40° 98° (E) 897 4.1 -7.3°
Drops below altitude 10° 06:20:21 10° 168° (SSE) 1,948 5.6 -6.6°
Sets 06:22:37 0° 176° (S) 2,847 6.4 -6.3°
